IZ2OSD Weather Reports


Display with metric or nautical units.
time (UTC)temp
F
wind
direction
speed
MPH
gust
MPH
rain 1hr
in
rain 24hr
in
rain mn
in
humidity
%
barometer
mb
20260507002945 53 315 1.0 2.0 0.00 0.56 0.00 89 1009.7
20260507001943 52 292 1.0 3.0 0.00 0.56 0.00 90 1009.8
20260507000939 53 292 1.0 3.0 0.00 0.56 0.00 90 1009.9
20260506235934 53 315 2.0 3.0 0.00 0.56 0.00 91 1009.8
20260506234931 53 292 2.0 3.0 0.00 0.56 0.00 91 1010.0
20260506233928 53 292 3.0 4.0 0.00 0.56 0.00 90 1009.9
20260506232924 53 292 2.0 3.0 0.00 0.56 0.00 91 1009.8
20260506231920 53 292 0.0 1.0 0.00 0.56 0.00 90 1009.7
20260506230937 53 315 2.0 3.0 0.00 0.56 0.00 90 1009.8
20260506225933 53 315 3.0 4.0 0.00 0.56 0.00 90 1009.4
20260506224909 53 292 1.0 2.0 0.00 0.56 0.00 90 1009.5
20260506223906 53 315 1.0 3.0 0.00 0.56 0.00 90 1009.6
20260506222118 53 292 1.0 2.0 0.00 0.56 0.00 92 1009.6
20260506221116 53 292 0.0 2.0 0.00 0.56 0.00 91 1009.5
20260506220211 53 292 1.0 3.0 0.00 0.56 0.00 91 1009.4
20260506215128 53 292 0.0 2.0 0.00 0.56 0.56 91 1009.3
20260506214104 53 292 0.0 1.0 0.00 0.56 0.56 91 1009.5
20260506213101 53 0.0 1.0 0.00 0.56 0.56 91 1009.5
20260506212059 53 292 0.0 1.0 0.00 0.56 0.56 91 1009.2
20260506211055 53 292 0.0 1.0 0.00 0.56 0.56 91 1009.3
20260506210051 53 0.0 0.0 0.00 0.56 0.56 91 1009.3
20260506205049 53 292 0.0 1.0 0.00 0.56 0.56 91 1009.1
20260506204045 53 0.0 0.0 0.00 0.56 0.56 92 1009.1
20260506203041 53 315 1.0 3.0 0.00 0.56 0.56 92 1009.2
20260506202037 53 315 1.0 2.0 0.00 0.56 0.56 92 1009.1
20260506201053 53 315 3.0 6.0 0.00 0.56 0.56 92 1009.1
20260506200032 53 315 2.0 3.0 0.00 0.56 0.56 92 1008.9
20260506195025 53 315 1.0 2.0 0.00 0.56 0.56 92 1008.9
20260506194019 53 0.0 0.0 0.00 0.57 0.56 92 1008.7
20260506193017 53 0.0 0.0 0.00 0.57 0.56 92 1008.5
20260506192016 53 315 1.0 2.0 0.11 0.57 0.56 91 1008.2
20260506191010 54 315 0.0 1.0 0.11 0.57 0.56 90 1007.8
20260506190007 53 315 3.0 9.0 0.11 0.57 0.56 90 1007.2
20260506185003 53 292 5.0 10.0 0.11 0.57 0.56 92 1007.3
20260506184020 53 292 8.0 12.0 0.11 0.57 0.56 93 1007.5
20260506182956 54 315 3.0 3.0 0.09 0.55 0.54 90 1008.0
20260506182012 56 315 1.0 3.0 0.00 0.46 0.44 88 1008.6
20260506180949 56 0.0 0.0 0.00 0.46 0.44 86 1007.7
20260506175947 56 0.0 0.0 0.00 0.46 0.44 86 1007.4
20260506174941 56 315 1.0 2.0 0.00 0.46 0.44 85 1006.9
20260506173938 56 315 1.0 2.0 0.00 0.46 0.44 84 1007.0
20260506172935 56 315 1.0 2.0 0.00 0.46 0.44 85 1006.8
20260506171931 56 315 2.0 4.0 0.00 0.46 0.44 85 1006.7
20260506170927 56 315 1.0 2.0 0.00 0.46 0.44 86 1006.6
20260506165923 55 315 4.0 8.0 0.00 0.46 0.44 86 1006.5
20260506164917 56 270 4.0 11.0 0.00 0.46 0.44 85 1006.4
20260506163934 56 315 2.0 3.0 0.00 0.46 0.44 85 1006.7
20260506162911 56 0.0 1.0 0.00 0.46 0.44 87 1006.3
20260506161930 57 0.0 0.0 0.00 0.46 0.44 87 1005.9
20260506160928 56 315 4.0 8.0 0.00 0.47 0.44 87 1005.2
20260506155902 56 45 4.0 8.0 0.01 0.47 0.44 88 1005.2
20260506154859 57 315 2.0 4.0 0.04 0.47 0.44 89 1005.4
20260506153855 56 337 6.0 8.0 0.09 0.48 0.44 88 1005.9
20260506152851 57 315 3.0 4.0 0.09 0.48 0.44 88 1005.7
20260506151908 55 315 1.0 2.0 0.09 0.48 0.44 93 1005.3
20260506150845 53 315 3.0 4.0 0.09 0.48 0.44 92 1005.6
20260506145841 53 315 5.0 9.0 0.08 0.47 0.43 90 1006.0
20260506144838 55 292 4.0 6.0 0.04 0.43 0.40 90 1006.0
20260506143835 57 315 1.0 2.0 0.00 0.38 0.35 82 1006.4
20260506142830 58 315 6.0 9.0 0.00 0.38 0.35 83 1005.5
20260506141828 61 0.0 1.0 0.00 0.38 0.35 79 1005.8
20260506140825 63 45 2.0 6.0 0.00 0.40 0.35 83 1005.6
20260506135900 63 292 3.0 8.0 0.00 0.40 0.35 83 1005.3
20260506134816 63 90 6.0 11.0 0.00 0.40 0.35 83 1005.6
20260506133835 63 112 4.0 10.0 0.00 0.40 0.35 83 1005.5
20260506132812 62 135 9.0 18.0 0.00 0.40 0.35 84 1005.5
20260506131807 62 337 7.0 11.0 0.00 0.40 0.35 85 1005.5
20260506130803 62 45 7.0 17.0 0.00 0.40 0.35 83 1006.0
20260506125820 62 22 6.0 15.0 0.00 0.40 0.35 83 1006.2
20260506124756 62 337 7.0 15.0 0.00 0.40 0.35 84 1006.3
20260506123752 61 225 4.0 10.0 0.00 0.40 0.35 85 1006.3
20260506122748 61 90 4.0 12.0 0.00 0.40 0.35 85 1006.4
20260506121745 62 135 4.0 9.0 0.00 0.40 0.35 84 1006.4
20260506120742 62 67 4.0 8.0 0.00 0.40 0.35 84 1006.4
20260506115739 62 202 6.0 13.0 0.00 0.40 0.35 85 1006.3
20260506114735 60 112 6.0 13.0 0.00 0.40 0.35 87 1006.2
20260506113732 60 112 7.0 15.0 0.00 0.41 0.35 87 1006.7
20260506112729 60 135 8.0 15.0 0.00 0.41 0.35 86 1006.5
20260506111725 60 315 8.0 13.0 0.00 0.42 0.35 87 1006.8
20260506110722 60 112 7.0 11.0 0.00 0.43 0.35 86 1006.7
20260506105718 60 112 6.0 10.0 0.00 0.43 0.35 87 1006.6
20260506104715 60 67 4.0 10.0 0.00 0.44 0.35 89 1007.1
20260506103733 60 292 7.0 13.0 0.00 0.46 0.35 88 1006.9
20260506102709 60 202 5.0 12.0 0.00 0.47 0.35 88 1006.8
20260506101705 59 315 7.0 11.0 0.00 0.49 0.35 90 1007.0
20260506100704 58 45 6.0 9.0 0.00 0.50 0.35 93 1007.2
20260506095659 57 337 7.0 15.0 0.00 0.51 0.35 95 1006.9
20260506094657 56 315 5.0 15.0 0.04 0.51 0.35 98 1006.9
20260506093713 57 270 5.0 11.0 0.08 0.53 0.35 99 1006.8
20260506092709 56 112 7.0 11.0 0.10 0.53 0.35 99 1007.0
20260506091646 55 90 4.0 10.0 0.15 0.54 0.35 99 1007.0
20260506090642 55 337 7.0 15.0 0.23 0.54 0.35 99 1006.7
20260506085639 55 45 8.0 12.0 0.27 0.54 0.35 99 1006.2
20260506084637 55 315 11.0 20.0 0.24 0.49 0.30 99 1006.1
20260506083633 55 157 5.0 10.0 0.22 0.46 0.27 99 1006.7
20260506082647 55 292 5.0 11.0 0.20 0.43 0.24 98 1007.0
20260506081624 55 45 3.0 6.0 0.15 0.38 0.20 98 1007.1
20260506080621 55 315 4.0 8.0 0.07 0.30 0.11 97 1007.3
20260506072607 55 67 4.0 8.0 0.00 0.24 0.04 98 1007.2
20260506071604 55 292 3.0 9.0 0.00 0.25 0.04 99 1006.9
20260506070600 55 0 6.0 10.0 0.00 0.29 0.04 99 1007.2
20260506061541 55 0 2.0 4.0 0.00 0.38 0.04 99 1007.6
20260506060558 55 0 2.0 4.0 0.00 0.41 0.04 99 1007.6
20260506050515 54 337 4.0 8.0 0.02 0.46 0.04 99 1007.6
20260506044508 54 112 5.0 11.0 0.02 0.46 0.04 99 1007.9
20260506043505 54 112 3.0 8.0 0.02 0.46 0.04 99 1008.0
20260506042459 54 292 2.0 4.0 0.03 0.46 0.04 99 1008.0
20260506041456 54 292 3.0 6.0 0.02 0.44 0.03 99 1008.0
20260506040453 54 315 2.0 6.0 0.01 0.43 0.02 99 1008.4
20260506035512 54 135 2.0 3.0 0.01 0.43 0.02 99 1008.0
20260506034443 54 292 3.0 8.0 0.01 0.43 0.02 99 1007.9
20260506033440 54 112 3.0 6.0 0.02 0.43 0.02 99 1008.2
20260506032436 55 90 2.0 4.0 0.01 0.42 0.01 99 1008.5
20260506031432 55 0 3.0 9.0 0.01 0.42 0.01 99 1008.3
20260506030428 55 315 0.0 2.0 0.01 0.42 0.01 99 1008.5
20260506025425 55 112 1.0 3.0 0.01 0.42 0.01 99 1009.0
20260506024421 55 90 2.0 4.0 0.01 0.42 0.01 98 1008.8
20260506023418 55 292 1.0 3.0 0.00 0.41 0.00 98 1008.7
20260506022414 55 135 2.0 6.0 0.00 0.41 0.00 98 1009.2
20260506021410 55 112 1.0 3.0 0.00 0.41 0.00 98 1009.0
20260506020407 55 90 1.0 3.0 0.00 0.41 0.00 98 1009.5
20260506015405 55 112 2.0 4.0 0.00 0.41 0.00 99 1009.3
20260506014402 55 112 3.0 8.0 0.00 0.41 0.00 98 1009.2
20260506013358 55 90 3.0 8.0 0.00 0.41 0.00 99 1009.4
20260506012355 55 292 3.0 6.0 0.00 0.41 0.00 99 1009.3
20260506011352 55 135 1.0 3.0 0.00 0.41 0.00 99 1009.3
20260506010348 55 315 3.0 6.0 0.00 0.41 0.00 99 1009.6
20260506005346 55 112 3.0 4.0 0.00 0.41 0.00 99 1009.5
20260506004342 55 135 2.0 6.0 0.00 0.41 0.00 99 1009.8